Date,TemperatureHighF,TemperatureAvgF,TemperatureLowF,DewpointHighF,DewpointAvgF,DewpointLowF,HumidityHigh,HumidityAvg,HumidityLow,PressureMaxIn,PressureMinIn,WindSpeedMaxMPH,WindSpeedAvgMPH,GustSpeedMaxMPH,PrecipitationSumIn
2013-4-1,54,47,39,46,42,21,100,83,55,29.86,29.63,24,-3,31,0.00
2013-4-2,43,37,30,25,13,7,63,37,23,30.04,29.86,24,12,35,0.00
2013-4-3,45,39,34,16,11,9,40,32,24,30.25,30.04,24,14,33,0.00
2013-4-4,45,38,30,32,21,10,75,49,32,30.38,30.15,17,10,31,0.00
2013-4-5,57,45,39,45,33,18,87,66,24,30.15,29.69,16,6,28,0.00
2013-4-6,46,39,27,25,15,3,68,39,16,30.35,29.92,22,10,31,0.00
2013-4-7,52,39,21,43,31,16,87,72,46,30.34,30.08,17,-8,29,0.00
2013-4-8,66,53,46,48,43,39,93,71,39,30.11,30.01,14,5,18,0.00
2013-4-9,79,60,46,50,44,36,93,63,22,30.08,29.91,23,8,38,0.00
2013-4-10,66,51,46,50,45,39,93,78,52,29.99,29.84,20,6,24,0.00
2013-4-11,57,49,45,52,44,37,100,84,70,30.10,29.81,17,7,27,0.00
2013-4-12,45,43,39,39,36,32,93,80,61,30.10,29.72,27,14,46,0.00
2013-4-13,54,45,39,43,37,34,93,75,46,29.98,29.72,15,-6,20,0.00
2013-4-14,57,50,45,43,33,25,87,55,30,30.23,29.98,22,9,32,0.00
2013-4-15,50,43,36,37,31,25,86,62,45,30.42,30.23,10,-156,17,0.00
2013-4-16,55,48,36,48,42,30,93,82,66,30.42,30.18,17,8,30,0.00
2013-4-17,66,56,43,52,43,34,93,65,29,30.33,30.14,15,6,23,0.00
2013-4-18,55,47,34,46,37,28,93,68,37,30.41,30.17,20,7,29,0.00
2013-4-19,63,56,52,59,55,46,100,96,81,30.17,29.76,20,10,32,0.00
2013-4-20,57,52,45,57,44,27,100,76,37,30.24,29.70,24,10,38,0.00
2013-4-21,52,43,36,28,22,18,64,44,25,30.67,30.22,20,10,31,0.00
2013-4-22,52,42,28,37,30,21,86,63,34,30.69,30.53,21,11,35,0.00
2013-4-23,48,44,41,45,39,32,93,83,65,30.54,30.03,20,13,30,0.00
2013-4-24,59,49,45,48,43,39,100,80,58,30.05,29.93,22,13,29,0.00
2013-4-25,63,52,36,52,38,27,100,62,25,30.29,29.92,16,8,23,0.00
2013-4-26,57,46,30,43,35,27,86,65,47,30.41,30.29,10,3,16,0.00
2013-4-27,57,47,36,48,42,30,93,81,50,30.43,30.35,10,4,15,0.00
2013-4-28,57,48,34,50,38,-100,100,75,35,30.37,30.27,12,3,16,0.00
2013-4-29,57,53,50,46,44,39,81,69,50,30.30,30.25,13,4,21,0.00
2013-4-30,61,52,37,45,33,23,87,53,26,30.37,30.25,14,5,22,0.00